Regional Weather Roundup
Issued by NWS

Home | Current Version | Previous Version | Graphics & Text | Print | Product List | Glossary On
Versions: 1 2 3 4 5 6 7 8 9 10 11 12 13 14 15 16 17 18 19 20 21 22 23 24 25 26 27 28 29 30 31 32 33 34 35 36 37 38 39 40 41 42 43 44 45 46 47 48 49 50
000
ASUS45 KBOI 250610
RWRID

IDAHO REGIONAL WEATHER ROUNDUP
NATIONAL WEATHER SERVICE BOISE ID
1200 AM MDT MON MAY 25 2015

NOTE: "FAIR" INDICATES FEW OR NO CLOUDS BELOW 12000 FEET
WITH NO SIGNIFICANT WEATHER AND/OR OBSTRUCTIONS TO VISIBILITY

IDZ012-014-250700-
SOUTHWEST IDAHO


CITY           SKY/WX    TMP DP  RH WIND       PRES   REMARKS
BOISE          CLEAR     59  47  64 SE10G17   29.87R
CALDWELL       MOCLDY    63  43  48 SE12      29.86R
MOUNTAIN HOME  PTCLDY    56  48  75 S12       29.88F
$$

IDZ016-017-250700-
SOUTHCENTRAL IDAHO


CITY           SKY/WX    TMP DP  RH WIND       PRES   REMARKS
BURLEY         PTCLDY    51  44  77 W5        29.91F
JEROME         MOCLDY    51  46  83 E3        29.92F
TWIN FALLS     PTCLDY    52  45  77 S9        29.89F
$$

IDZ019>023-250700-
SOUTHEAST IDAHO


CITY           SKY/WX    TMP DP  RH WIND       PRES   REMARKS
IDAHO FALLS    CLOUDY    54  47  77 S3        29.92R
POCATELLO      MOCLDY    52  48  86 SW13      29.93S
REXBURG        CLOUDY    55  43  63 N5        29.92S
$$

IDZ006-010-011-018-031-032-250700-
CENTRAL IDAHO MOUNTAINS


CITY           SKY/WX    TMP DP  RH WIND       PRES   REMARKS
MCCALL         CLEAR     52  41  66 N5        29.92S
HAILEY         PTCLDY    46  45  93 NW9       29.98F
STANLEY          N/A     41  36  82 S3        30.01S
SALMON         PTCLDY    52  43  71 NW3       29.91F
CHALLIS        CLEAR     49  39  68 CALM      29.94S
$$

IDZ002-004-006-007-026-250700-
NORTHERN IDAHO


CITY           SKY/WX    TMP DP  RH WIND       PRES   REMARKS
LEWISTON       MOCLDY    65  51  60 SW5       29.81F
LOWELL           N/A     55  53  93 N3        29.86S
COEUR D`ALENE  CLOUDY    61  48  63 E8        29.85S
MULLAN PASS    CLOUDY    48  36  63 NW6       29.98F
$$


USA.gov is the U.S. government's official web portal to all federal, state and local government web resources and services.